Regional Weather Roundup
Issued by NWS Newport/Morehead, NC

Current Version | Previous Version | Graphics & Text | Print | Product List | Glossary On
Versions: 1 2 3 4 5 6 7 8 9 10 11 12 13 14 15 16 17 18 19 20 21 22 23 24 25 26 27 28 29 30 31 32 33 34 35 36 37 38 39 40 41 42 43 44 45 46 47 48 49 50
000 ASUS42 KMHX 211813 RWRMHX WEATHER ROUNDUP FOR EASTERN NORTH CAROLINA NATIONAL WEATHER SERVICE NEWPORT/MOREHEAD CITY NC 100 PM EST TUE FEB 21 2017 NOTE: "FAIR" INDICATES FEW OR NO CLOUDS BELOW 12,000 FEET WITH NO SIGNIFICANT WEATHER AND/OR OBSTRUCTIONS TO VISIBILITY NCZ015>017-031-032-045>047-102-103-211900- NORTH COAST CITY SKY/WX TMP DP RH WIND PRES REMARKS EDENTON CLOUDY 58 42 54 E8 30.26F ELIZABETH CITY MOSUNNY 57 40 52 E9 30.26F KITTY HAWK NOT AVBL MANTEO SUNNY 56 44 63 NE13 30.26S $$ NCZ045>047-081-094-103-104-211900- CENTRAL COAST CITY SKY/WX TMP DP RH WIND PRES REMARKS FRISCO CLOUDY 62 51 67 NE8 30.21F $$ NCZ095-097-098-100-101-211900- SOUTHERN COAST CITY SKY/WX TMP DP RH WIND PRES REMARKS BEAUFORT NOT AVBL CEDAR ISLAND NOT AVBL JACKSONVILLE PTSUNNY 64 50 60 CALM 30.20F PINEY ISLAND CLOUDY N/A N/A N/A NE15G21 30.21F WILMINGTON MOSUNNY 65 50 58 E7 30.19F $$ NCZ011>013-027>030-043-044-078>080-089-090>093-098-211900- COASTAL PLAIN CITY SKY/WX TMP DP RH WIND PRES REMARKS AHOSKIE NOT AVBL CLINTON CLOUDY 66 42 42 NE5 30.21F ELIZABETHTOWN MOSUNNY 68 40 35 E3 30.19F GOLDSBORO NOT AVBL GREENVILLE CLOUDY 63 45 51 NE6 30.24F HAVELOCK PTSUNNY 61 48 62 E13 30.23F KENANSVILLE NOT AVBL KINSTON PTSUNNY 63 46 55 NE3 30.22F NEW BERN PTSUNNY 63 49 60 E6 30.23F RICHLANDS CLOUDY 65 49 56 VRB5 30.20F ROCKY MOUNT CLOUDY 60 39 45 SE5 30.23F WASHINGTON MOSUNNY 62 47 57 E5 30.23F WHITEVILLE CLOUDY 68 41 37 E9 30.17F $$ AMZ130-135-150-152-154-156-158-170-250-252-270-ANZ085-086-088-633-658-670-211900- MARINE OBSERVATIONS STATION/POSITION TIME TEMP WIND PRES WAVE SWELL AIR SEA DIR/SP/G HT/PER HT/PER (UTC) (F) (DEG/KT/KT) (MB) (FT/S) (FT/S) CHESAPEAKE LIGHT NOT AVBL 64 E VA BEACH 1750 51 54 60/ 12/ 14 1024.5 4/ 7 3/ 7 DUCK 1748 49 48 20/ 9/ 11 1024.3 2 E DUCK 1800 49 N/A 4/ 8 OREGON INLET 1736 53 51 10/ 8/ 13 1024.1 13E OREGON INLT NOT AVBL HATTERAS CG 1748 56 57 20/ 8/ 12 1022.9 DIAMOND BUOY 1750 64 75 110/ 10/ 14 1022.8 6/10 5/10 CAPE LOOKOUT 1800 57 30/ 14/ 15 1022.5 BEAUFORT LAB 1748 63 53 50/ 6/ 10 1021.9 30 SE NEW RVR IN 1708 59 40/ 14/ 19 1022.9 30 SE NEW RVR IN 1743 68 N/A 4/10 27 SE WRIGHTSVLE 1708 60 63 60/ 14/ 19 1022.0 5 SE WRIGHTSVLE 1708 55 56 50/ 10/ 17 1023.1 225 S CAPE HAT 1750 65 71 70/ 14/ 17 1020.9 5/ 7 3/ 7 41 SE CHARLESTON 1750 70 68 100/ 16/ 19 1019.4 4/ 6 $$

USA.gov is the U.S. government's official web portal to all federal, state and local government web resources and services.